Location: Pf�ffikon
(47.2015°N, 8.7809°E)
Time: 04:09:33
(UTC+00:00)

Meteor 1-28 Rocket - Pass Details

Date: 07 June 2020
Orbit: 504 x 523 km, 97.3° (Epoch: 14 July)

Event Time Altitude Azimuth Distance (km) Brightness Sun altitude
Exits shadow 02:40:33 - 180° (S) 2,574 6.3 -7.2°
Reaches altitude 10° 02:42:35 10° 185° (S) 1,738 5.4 -6.9°
Maximum altitude 02:46:13 48° 261° (W) 684 3.5 -6.5°
Drops below altitude 10° 02:49:51 10° 336° (NNW) 1,742 6.2 -6.1°
Sets 02:52:01 0° 343° (NNW) 2,630 7.2 -5.8°
